Frenchville, ME

9:45 PM EDT on March 22, 2017 (GMT -0400)
Northern Aroostook Regional

Weather History for KFVE - June, 2013

Change the Weather History Date:

Wednesday, June 12, 2013

  Actual Average Record
Temperature  
Mean Temperature 59 °F 58 °F  
Max Temperature 67 °F 68 °F 88 °F (1999)
Min Temperature 51 °F 48 °F 36 °F (2000)
Degree Days  
Heating Degree Days 6    
Month to date heating degree days 112  
Since 1 July heating degree days 8994  
Cooling Degree Days 0    
Month to date cooling degree days 0  
Year to date cooling degree days 11  
Growing Degree Days 10 (Base 50)    
Moisture  
Dew Point 47 °F    
Average Humidity 70    
Maximum Humidity 97    
Minimum Humidity 34    
Precipitation  
Precipitation 0.05 in 0.12 in 1.09 in (2016)
Month to date precipitation 1.88 1.33  
Year to date precipitation 11.77 11.23  
Sea Level Pressure  
Sea Level Pressure 29.74 in    
Wind  
Wind Speed 9 mph (NE)    
Max Wind Speed 22 mph    
Max Gust Speed 29 mph    
Visibility 10 miles    
Events Rain    
T = Trace of Precipitation, MM = Missing Value Source: NWS Daily Summary

Daily Weather History Graph

Daily Weather History Graph

Search for Another Location

Airport or City:

Trip Planner

Search our weather history database for the weather conditions in past years. The results will help you decide how hot, cold, wet, or windy it might be!

Date:

Astronomy

Jun. 12, 2013 Rise Set
Actual Time 4:36 AM EDT 8:30 PM EDT
Civil Twilight 3:56 AM EDT 9:10 PM EDT
Nautical Twilight 3:01 AM EDT 10:05 PM EDT
Astronomical Twilight 1:39 AM EDT 11:28 PM EDT
Moon 8:24 AM EDT (6/12) 10:49 PM EDT (6/12)
Length of Visible Light 17h 13m
Length of Day
15h 53m
Waxing Crescent, 14% of the Moon is Illuminated
Jun 12
Waxing Crescent
Jun 16
First Quarter
Jun 23
Full
Jun 30
Last Quarter
Jul 8
New

Hourly Weather History & Observations

Time (EDT) Temp. Dew Point Humidity Pressure Visibility Wind Dir Wind Speed Gust Speed Precip Events Conditions
12:53 AM 55.0 °F 53.1 °F 93% 29.74 in 10.0 mi NE 4.6 mph - 0.03 in Rain Light Rain
1:53 AM 55.0 °F 53.1 °F 93% 29.73 in 10.0 mi NNE 6.9 mph - 0.00 in   Overcast
2:53 AM 54.0 °F 52.0 °F 93% 29.72 in 10.0 mi NE 3.5 mph - N/A   Overcast
3:53 AM 53.1 °F 52.0 °F 96% 29.71 in 10.0 mi North 5.8 mph - 0.01 in Rain Light Rain
4:53 AM 53.1 °F 52.0 °F 96% 29.71 in 10.0 mi NNE 9.2 mph - 0.00 in Rain Light Rain
5:53 AM 54.0 °F 52.0 °F 93% 29.71 in 10.0 mi North 10.4 mph - 0.01 in Rain Light Rain
6:53 AM 54.0 °F 52.0 °F 93% 29.72 in 10.0 mi North 10.4 mph - 0.01 in Rain Light Rain
7:40 AM 55.4 °F 53.6 °F 94% 29.74 in 9.0 mi North 5.8 mph - 0.00 in Rain Light Rain
7:53 AM 55.0 °F 54.0 °F 96% 29.73 in 5.0 mi North 9.2 mph - 0.01 in Rain Light Rain
8:53 AM 55.9 °F 55.0 °F 97% 29.73 in 7.0 mi North 8.1 mph - 0.00 in Rain Light Rain
9:32 AM 57.2 °F 55.4 °F 94% 29.74 in 9.0 mi NNE 4.6 mph - 0.01 in Rain Light Rain
9:53 AM 57.9 °F 55.0 °F 90% 29.74 in 10.0 mi NNE 6.9 mph - 0.01 in Rain Light Rain
10:14 AM 57.2 °F 55.4 °F 94% 29.74 in 10.0 mi NNE 6.9 mph - 0.00 in   Overcast
10:17 AM 57.2 °F 55.4 °F 94% 29.74 in 10.0 mi North 8.1 mph - 0.00 in   Overcast
10:37 AM 60.8 °F 55.4 °F 82% 29.74 in 10.0 mi Variable 6.9 mph - 0.00 in   Mostly Cloudy
10:53 AM 60.1 °F 53.1 °F 78% 29.74 in 10.0 mi NE 11.5 mph - 0.00 in   Mostly Cloudy
11:53 AM 61.0 °F 50.0 °F 67% 29.74 in 10.0 mi NNE 10.4 mph - N/A   Mostly Cloudy
12:53 PM 64.9 °F 46.0 °F 50% 29.73 in 10.0 mi ENE 18.4 mph 26.5 mph N/A   Partly Cloudy
1:53 PM 66.0 °F 44.1 °F 45% 29.72 in 10.0 mi NE 10.4 mph 18.4 mph N/A   Clear
2:53 PM 66.0 °F 39.0 °F 37% 29.74 in 10.0 mi NE 12.7 mph 20.7 mph N/A   Clear
3:53 PM 64.9 °F 37.9 °F 37% 29.74 in 10.0 mi ENE 9.2 mph 18.4 mph N/A   Clear
4:53 PM 64.9 °F 36.0 °F 34% 29.74 in 10.0 mi ENE 9.2 mph 18.4 mph N/A   Clear
5:53 PM 63.0 °F 39.0 °F 41% 29.74 in 10.0 mi ENE 10.4 mph - N/A   Clear
6:53 PM 62.1 °F 37.9 °F 41% 29.75 in 10.0 mi ENE 6.9 mph - N/A   Clear
7:53 PM 61.0 °F 35.1 °F 38% 29.77 in 10.0 mi ENE 9.2 mph - N/A   Clear
8:53 PM 59.0 °F 34.0 °F 39% 29.78 in 10.0 mi ENE 11.5 mph - N/A   Clear
9:53 PM 57.0 °F 30.9 °F 37% 29.79 in 10.0 mi ENE 11.5 mph 17.3 mph N/A   Clear
10:53 PM 55.9 °F 30.9 °F 39% 29.79 in 10.0 mi NE 9.2 mph - N/A   Clear
11:53 PM 54.0 °F 30.0 °F 40% 29.78 in 10.0 mi ENE 6.9 mph - N/A   Clear